DW6368 Weather Reports


time (UTC)temp
C
wind
direction
speed
KPH
gust
KPH
rain 1hr
cm
rain 24hr
cm
rain mn
cm
humidity
%
barometer
mb
20260905145306 17 341 0.0 3.2 0.00 0.00 0.00 99 1012.7
20260905144302 17 19 0.0 3.2 0.00 0.00 0.00 99 1012.7
20260905143303 16 35 0.0 1.6 0.00 0.00 0.00 100 1012.6
20260905141303 16 23 0.0 3.2 0.00 0.00 0.00 98 1012.3
20260905140303 15 42 0.0 1.6 0.00 0.00 0.00 98 1012.2
20260905135306 15 351 0.0 1.6 0.00 0.00 0.00 98 1012.2
20260905134303 15 44 0.0 1.6 0.00 0.00 0.00 98 1012.1
20260905133324 15 325 0.0 1.6 0.00 0.00 0.00 98 1012.1
20260905132305 15 336 0.0 1.6 0.00 0.00 0.00 97 1011.8
20260905131303 15 35 0.0 1.6 0.00 0.00 0.00 98 1011.8
20260905130303 15 9 0.0 0.0 0.00 0.00 0.00 97 1011.7
20260905125305 16 9 0.0 1.6 0.00 0.00 0.00 97 1011.7
20260905124303 16 309 0.0 1.6 0.00 0.00 0.00 97 1011.6
20260905123303 16 325 0.0 1.6 0.00 0.00 0.00 97 1011.7
20260905122306 16 34 0.0 1.6 0.00 0.00 0.00 97 1011.7
20260905121303 16 28 0.0 1.6 0.00 0.00 0.00 97 1011.8
20260905120303 16 59 0.0 1.6 0.00 0.00 0.00 97 1011.9
20260905115306 16 51 0.0 1.6 0.00 0.00 0.00 97 1011.9
20260905114302 16 51 0.0 1.6 0.00 0.00 0.00 97 1011.9
20260905113303 16 4 0.0 1.6 0.00 0.00 0.00 97 1011.7
20260905112305 16 51 0.0 1.6 0.00 0.00 0.00 97 1011.8
20260905111303 16 51 0.0 1.6 0.00 0.00 0.00 97 1011.9
20260905110302 16 37 0.0 1.6 0.00 0.00 0.00 97 1012.0
20260905105306 16 51 0.0 1.6 0.00 0.00 0.00 97 1012.0
20260905104324 16 53 0.0 1.6 0.00 0.00 0.00 96 1012.0
20260905103325 17 68 0.0 1.6 0.00 0.00 0.00 97 1012.0
20260905102306 17 9 0.0 1.6 0.00 0.00 0.00 97 1012.0
20260905101303 17 37 0.0 1.6 0.00 0.00 0.00 96 1012.1
20260905095345 17 345 0.0 1.6 0.00 0.00 0.00 96 1012.2
20260905094302 17 9 0.0 1.6 0.00 0.00 0.00 97 1012.0
20260905093303 17 9 0.0 1.6 0.00 0.00 0.00 96 1012.1
20260905092323 17 9 0.0 1.6 0.00 0.00 0.00 96 1012.0
20260905091303 17 68 0.0 1.6 0.00 0.00 0.00 96 1012.0
20260905090303 17 51 0.0 1.6 0.00 0.00 0.00 95 1012.1
20260905085305 17 93 0.0 0.0 0.00 0.00 0.00 95 1012.1
20260905084303 17 51 0.0 1.6 0.00 0.00 0.00 96 1012.1
20260905083303 18 349 0.0 1.6 0.00 0.00 0.00 96 1012.3
20260905082306 18 5 0.0 1.6 0.00 0.00 0.00 95 1012.3
20260905081303 18 35 0.0 1.6 0.00 0.00 0.00 96 1012.4
20260905080323 18 15 0.0 1.6 0.00 0.00 0.00 95 1012.4
20260905075306 18 51 0.0 1.6 0.00 0.00 0.00 95 1012.5
20260905074303 18 51 0.0 1.6 0.00 0.00 0.00 94 1012.3
20260905073303 18 13 0.0 1.6 0.00 0.00 0.00 94 1012.3
20260905072324 18 22 0.0 1.6 0.00 0.00 0.00 94 1012.3
20260905071303 18 122 0.0 1.6 0.00 0.00 0.00 94 1012.3
20260905070324 18 69 0.0 1.6 0.00 0.00 0.00 93 1012.3
20260905065306 18 51 0.0 1.6 0.00 0.00 0.00 93 1012.2
20260905064303 18 51 0.0 1.6 0.00 0.00 0.00 93 1012.1
20260905063303 18 93 0.0 1.6 0.00 0.00 0.00 92 1012.1
20260905062305 18 51 0.0 1.6 0.00 0.00 0.00 92 1012.1
20260905061303 19 56 0.0 1.6 0.00 0.00 0.00 92 1012.0
20260905060303 19 51 0.0 1.6 0.00 0.00 0.00 91 1012.1
20260905055323 19 9 0.0 1.6 0.00 0.00 0.00 91 1012.1
20260905054303 19 51 0.0 1.6 0.00 0.00 0.00 90 1012.1
20260905052324 20 9 0.0 1.6 0.00 0.00 0.00 90 1012.0
20260905050303 20 25 0.0 1.6 0.00 0.00 0.00 89 1012.0
20260905045324 20 38 0.0 1.6 0.00 0.00 0.00 88 1012.0
20260905044302 20 51 0.0 1.6 0.00 0.00 0.00 88 1012.0
20260905043324 20 53 0.0 1.6 0.00 0.00 0.00 87 1011.6
20260905042324 21 10 0.0 3.2 0.00 0.00 0.00 87 1011.6
20260905041303 21 51 0.0 3.2 0.00 0.00 0.00 86 1011.6
20260905040303 21 308 0.0 3.2 0.00 0.00 0.00 86 1011.5
20260905035306 21 303 1.6 4.8 0.00 0.00 0.00 85 1011.4
20260905034303 21 301 3.2 4.8 0.00 0.00 0.00 85 1011.3
20260905033324 21 317 1.6 9.7 0.00 0.00 0.00 85 1011.2
20260905032306 21 305 1.6 4.8 0.00 0.00 0.00 84 1011.1
20260905031303 21 305 1.6 8.0 0.00 0.00 0.00 83 1010.9
20260905030302 21 307 3.2 6.4 0.00 0.00 0.00 83 1010.9
20260905025306 22 310 1.6 4.8 0.00 0.00 0.00 83 1010.8
20260905024303 22 9 0.0 1.6 0.00 0.00 0.00 82 1010.7
20260905023303 22 88 0.0 4.8 0.00 0.00 0.00 81 1010.6
20260905022306 23 129 1.6 4.8 0.00 0.00 0.00 80 1010.9
20260905021303 23 126 1.6 6.4 0.00 0.00 0.00 78 1010.8
20260905020303 23 159 1.6 4.8 0.00 0.00 0.00 76 1010.9
20260905015306 24 197 1.6 4.8 0.00 0.00 0.00 75 1010.8
20260905014303 24 191 1.6 4.8 0.00 0.00 0.00 75 1010.8
20260905013303 24 216 3.2 8.0 0.00 0.00 0.00 76 1010.8
20260905012306 24 211 1.6 8.0 0.00 0.00 0.00 75 1011.0
20260905011303 25 203 3.2 8.0 0.00 0.00 0.00 74 1011.0
20260905010302 25 242 1.6 6.4 0.00 0.00 0.00 72 1010.9
20260905005306 25 234 1.6 9.7 0.00 0.00 0.00 71 1011.0
20260905004303 25 252 4.8 11.3 0.00 0.00 0.00 69 1011.2
20260905003324 26 220 3.2 8.0 0.00 0.00 0.00 67 1011.1
20260905002324 26 218 3.2 8.0 0.00 0.00 0.00 66 1011.2
20260905001324 26 224 3.2 11.3 0.00 0.00 0.00 66 1011.1
20260905000303 27 214 3.2 8.0 0.00 0.00 0.00 65 1011.1
20260904235306 27 242 3.2 11.3 0.00 0.00 0.00 66 1011.1
20260904234303 27 227 3.2 9.7 0.00 0.00 0.00 66 1011.4
20260904233302 27 215 3.2 14.5 0.00 0.00 0.00 65 1011.3
20260904232306 27 205 3.2 9.7 0.00 0.00 0.00 65 1011.3
20260904231303 27 242 3.2 12.9 0.00 0.00 0.00 66 1011.3
20260904230304 27 223 3.2 9.7 0.00 0.00 0.00 64 1011.3
20260904225305 27 242 3.2 12.9 0.00 0.00 0.00 65 1011.4
20260904224302 27 224 6.4 11.3 0.00 0.00 0.00 65 1011.5
20260904223303 27 238 6.4 11.3 0.00 0.00 0.00 64 1011.6
20260904222306 27 225 4.8 11.3 0.00 0.00 0.00 65 1011.5
20260904221304 27 248 3.2 12.9 0.00 0.00 0.00 65 1011.4
20260904220303 27 198 3.2 16.1 0.00 0.00 0.00 65 1011.5
20260904215324 27 206 3.2 16.1 0.00 0.00 0.00 65 1011.5
20260904214303 27 202 3.2 14.5 0.00 0.00 0.00 66 1011.5
20260904213303 27 201 1.6 14.5 0.00 0.00 0.00 66 1011.6
20260904212306 27 244 4.8 11.3 0.00 0.00 0.00 65 1011.6
20260904211303 27 209 4.8 11.3 0.00 0.00 0.00 66 1011.7
20260904210302 27 228 3.2 9.7 0.00 0.00 0.00 67 1011.7
20260904205305 27 173 3.2 11.3 0.00 0.00 0.00 68 1011.7
20260904204303 26 180 3.2 14.5 0.00 0.00 0.00 68 1011.8
20260904203303 26 241 6.4 11.3 0.00 0.00 0.00 68 1011.9
20260904202305 26 198 1.6 17.7 0.00 0.00 0.00 69 1012.0
20260904201302 26 244 4.8 11.3 0.00 0.00 0.00 68 1012.1
20260904200303 26 237 4.8 11.3 0.00 0.00 0.00 68 1012.1
20260904195305 26 202 3.2 16.1 0.00 0.00 0.00 70 1012.2
20260904194302 26 242 4.8 16.1 0.00 0.00 0.00 69 1012.3
20260904193303 26 220 3.2 9.7 0.00 0.00 0.00 68 1012.4
20260904192324 26 217 4.8 16.1 0.00 0.00 0.00 68 1012.5
20260904191324 27 220 3.2 8.0 0.00 0.00 0.00 68 1012.6
20260904190302 27 176 3.2 8.0 0.00 0.00 0.00 67 1012.8
20260904185306 26 216 3.2 9.7 0.00 0.00 0.00 68 1012.9
20260904184302 26 181 3.2 11.3 0.00 0.00 0.00 68 1013.0
20260904183324 26 212 1.6 9.7 0.00 0.00 0.00 69 1012.9
20260904182306 26 154 1.6 8.0 0.00 0.00 0.00 69 1012.9
20260904181303 25 187 1.6 11.3 0.00 0.00 0.00 71 1013.0
20260904180302 25 219 3.2 9.7 0.00 0.00 0.00 72 1012.9
20260904175305 25 217 3.2 11.3 0.00 0.00 0.00 71 1013.0
20260904174303 25 245 4.8 11.3 0.00 0.00 0.00 71 1013.0
20260904173302 25 222 4.8 11.3 0.00 0.00 0.00 68 1012.9
20260904172305 26 223 3.2 11.3 0.00 0.00 0.00 68 1012.9
20260904171303 26 170 1.6 6.4 0.00 0.00 0.00 68 1012.8
20260904170303 25 212 3.2 8.0 0.00 0.00 0.00 71 1012.9
20260904165305 25 240 1.6 6.4 0.00 0.00 0.00 71 1012.7
20260904164302 25 211 1.6 8.0 0.00 0.00 0.00 72 1012.6
20260904163303 24 97 3.2 8.0 0.00 0.00 0.00 73 1012.4
20260904162306 23 35 1.6 3.2 0.00 0.00 0.00 73 1012.5
20260904161303 23 195 1.6 6.4 0.00 0.00 0.00 76 1012.4
20260904160303 23 143 3.2 8.0 0.00 0.00 0.00 76 1012.3
20260904155306 22 61 1.6 6.4 0.00 0.00 0.00 77 1012.2
20260904154302 23 167 3.2 6.4 0.00 0.00 0.00 78 1012.2
20260904153303 22 159 1.6 4.8 0.00 0.00 0.00 79 1012.3
20260904152306 22 70 3.2 6.4 0.00 0.00 0.00 81 1012.2
20260904151302 21 110 3.2 6.4 0.00 0.00 0.00 83 1012.3
20260904150303 21 108 1.6 6.4 0.00 0.00 0.00 85 1012.3